When you browse on this site, cookies collect data to enhance your experience and personalize the content and advertising you see.
Visit our Privacy Policy to learn more. By continuing to use the site, you agree to this use of cookies and data.
  • In Austria
  • List of Countries
  • For 7 days
  • Water Temperature
  • Weather Map
  • News
  • Weather Widgets
  • user-avatar
    Login

    Hourly Weather Wien

    Today, 19 September, Thursday

    Time Temperature Precipitation Wind Pressure Humidity
    00:00 +12°C° 0 mm 1 mps 749 mmHg 57%
    01:00 +12°C° 0 mm 1 mps 749 mmHg 55%
    02:00 +12°C° 0 mm 2 mps 749 mmHg 56%
    03:00 +12°C° 0 mm 2 mps 749 mmHg 57%
    04:00 +10°C° 0 mm 2 mps 749 mmHg 58%
    05:00 +12°C° 0 mm 2 mps 749 mmHg 59%
    06:00 +12°C° 0 mm 2 mps 749 mmHg 60%
    07:00 +12°C° 0 mm 2 mps 750 mmHg 60%
    08:00 +12°C° 0 mm 3 mps 750 mmHg 56%
    09:00 +13°C° 0 mm 3 mps 750 mmHg 51%
    10:00 +15°C° 0 mm 4 mps 750 mmHg 47%
    11:00 +15°C° 0 mm 4 mps 750 mmHg 44%
    12:00 +17°C° 0 mm 4 mps 750 mmHg 40%
    13:00 +17°C° 0 mm 4 mps 750 mmHg 37%
    14:00 +17°C° 0 mm 4 mps 750 mmHg 38%
    15:00 +17°C° 0 mm 4 mps 750 mmHg 38%
    16:00 +17°C° 0 mm 4 mps 750 mmHg 38%
    17:00 +14°C° 0 mm 4 mps 750 mmHg 44%
    18:00 +13°C° 0 mm 4 mps 750 mmHg 49%
    19:00 +12°C° 0 mm 3 mps 751 mmHg 55%
    20:00 +11°C° 0 mm 3 mps 751 mmHg 58%
    21:00 +10°C° 0 mm 3 mps 751 mmHg 60%
    22:00 +10°C° 0 mm 2 mps 752 mmHg 63%
    23:00 +9°C° 0 mm 2 mps 752 mmHg 65%

    Tomorrow, 20 September, Friday

    Time Temperature Precipitation Wind Pressure Humidity
    00:00 +9°C° 0 mm 2 mps 752 mmHg 67%
    01:00 +8°C° 0 mm 2 mps 752 mmHg 69%
    02:00 +8°C° 0 mm 2 mps 752 mmHg 70%
    03:00 +8°C° 0 mm 2 mps 752 mmHg 72%
    04:00 +7°C° 0 mm 2 mps 751 mmHg 73%
    05:00 +8°C° 0 mm 2 mps 751 mmHg 72%
    06:00 +8°C° 0 mm 2 mps 751 mmHg 70%
    07:00 +9°C° 0 mm 2 mps 751 mmHg 68%
    08:00 +10°C° 0 mm 2 mps 752 mmHg 62%
    09:00 +13°C° 0 mm 2 mps 752 mmHg 55%
    10:00 +15°C° 0 mm 2 mps 752 mmHg 49%
    11:00 +16°C° 0 mm 2 mps 751 mmHg 44%
    12:00 +18°C° 0 mm 1 mps 751 mmHg 39%
    13:00 +19°C° 0 mm 1 mps 750 mmHg 34%
    14:00 +19°C° 0 mm 1 mps 750 mmHg 34%
    15:00 +19°C° 0 mm 1 mps 750 mmHg 33%
    16:00 +19°C° 0 mm 1 mps 749 mmHg 33%
    17:00 +16°C° 0 mm 1 mps 750 mmHg 37%
    18:00 +15°C° 0 mm 1 mps 750 mmHg 42%
    19:00 +13°C° 0 mm 1 mps 750 mmHg 46%
    20:00 +13°C° 0 mm 1 mps 750 mmHg 48%
    21:00 +12°C° 0 mm 1 mps 750 mmHg 49%
    22:00 +12°C° 0 mm 1 mps 750 mmHg 51%
    23:00 +11°C° 0 mm 1 mps 750 mmHg 53%

    Day after tomorrow, 21 September, Saturday

    Time Temperature Precipitation Wind Pressure Humidity
    00:00 +11°C° 0 mm 1 mps 750 mmHg 55%
    01:00 +10°C° 0 mm 1 mps 750 mmHg 56%
    02:00 +10°C° 0 mm 1 mps 750 mmHg 59%
    03:00 +9°C° 0 mm 2 mps 750 mmHg 61%
    04:00 +8°C° 0 mm 2 mps 750 mmHg 63%
    05:00 +9°C° 0 mm 2 mps 750 mmHg 62%
    06:00 +9°C° 0 mm 2 mps 749 mmHg 60%
    07:00 +9°C° 0 mm 3 mps 749 mmHg 59%
    08:00 +12°C° 0 mm 4 mps 749 mmHg 52%
    09:00 +14°C° 0 mm 4 mps 749 mmHg 44%
    10:00 +16°C° 0 mm 5 mps 749 mmHg 37%
    11:00 +17°C° 0 mm 6 mps 749 mmHg 35%
    12:00 +20°C° 0 mm 6 mps 748 mmHg 32%
    13:00 +21°C° 0 mm 6 mps 748 mmHg 30%
    14:00 +21°C° 0 mm 6 mps 747 mmHg 31%
    15:00 +21°C° 0 mm 6 mps 747 mmHg 32%
    16:00 +20°C° 0 mm 6 mps 746 mmHg 33%
    17:00 +19°C° 0 mm 5 mps 746 mmHg 37%
    18:00 +16°C° 0 mm 5 mps 746 mmHg 41%
    19:00 +15°C° 0 mm 4 mps 746 mmHg 45%
    20:00 +14°C° 0 mm 4 mps 746 mmHg 46%
    21:00 +13°C° 0 mm 4 mps 746 mmHg 48%
    22:00 +13°C° 0 mm 4 mps 746 mmHg 50%
    23:00 +12°C° 0 mm 4 mps 745 mmHg 50%

    22 September, Sunday

    Time Temperature Precipitation Wind Pressure Humidity
    00:00 +12°C° 0 mm 5 mps 745 mmHg 51%
    01:00 +12°C° 0 mm 5 mps 745 mmHg 51%
    02:00 +10°C° 0 mm 5 mps 745 mmHg 52%
    03:00 +10°C° 0 mm 5 mps 744 mmHg 52%
    04:00 +9°C° 0 mm 5 mps 744 mmHg 52%
    05:00 +11°C° 0 mm 4 mps 744 mmHg 51%
    06:00 +11°C° 0 mm 4 mps 744 mmHg 50%
    07:00 +11°C° 0 mm 4 mps 743 mmHg 49%
    08:00 +13°C° 0 mm 4 mps 743 mmHg 45%
    09:00 +14°C° 0 mm 5 mps 743 mmHg 41%
    10:00 +16°C° 0 mm 5 mps 743 mmHg 38%
    11:00 +19°C° 0 mm 5 mps 742 mmHg 38%
    12:00 +20°C° 0 mm 5 mps 742 mmHg 38%
    13:00 +21°C° 0 mm 4 mps 742 mmHg 38%
    14:00 +21°C° 0 mm 4 mps 741 mmHg 40%
    15:00 +21°C° 0 mm 3 mps 741 mmHg 42%
    16:00 +23°C° 0 mm 2 mps 740 mmHg 44%
    17:00 +20°C° 0 mm 2 mps 740 mmHg 50%
    18:00 +19°C° 0 mm 1 mps 740 mmHg 57%
    19:00 +18°C° 0 mm 1 mps 740 mmHg 63%
    20:00 +18°C° 0 mm 1 mps 739 mmHg 65%
    21:00 +16°C° 0 mm 1 mps 739 mmHg 67%
    22:00 +16°C° 0 mm 1 mps 739 mmHg 70%
    23:00 +15°C° 0 mm 1 mps 739 mmHg 73%

    23 September, Monday

    Time Temperature Precipitation Wind Pressure Humidity
    00:00 +15°C° 0 mm 1 mps 739 mmHg 77%
    01:00 +14°C° 0 mm 1 mps 738 mmHg 80%
    02:00 +14°C° 0 mm 1 mps 738 mmHg 82%
    03:00 +14°C° 0 mm 1 mps 738 mmHg 83%
    04:00 +12°C° 0 mm 0 mps 738 mmHg 85%
    05:00 +14°C° 0 mm 2 mps 738 mmHg 82%
    06:00 +14°C° 0 mm 3 mps 739 mmHg 79%
    07:00 +15°C° 0 mm 4 mps 739 mmHg 76%
    08:00 +16°C° 0 mm 5 mps 739 mmHg 71%
    09:00 +19°C° 0 mm 6 mps 739 mmHg 66%
    10:00 +21°C° 0 mm 6 mps 740 mmHg 61%
    11:00 +20°C° 0 mm 7 mps 739 mmHg 64%
    12:00 +18°C° 0 mm 7 mps 739 mmHg 67%
    13:00 +17°C° 0 mm 8 mps 739 mmHg 69%
    14:00 +17°C° 0 mm 8 mps 739 mmHg 70%
    15:00 +16°C° 0 mm 8 mps 739 mmHg 72%
    16:00 +15°C° 0 mm 8 mps 739 mmHg 73%
    17:00 +15°C° 0.2 mm 7 mps 740 mmHg 75%
    18:00 +15°C° 0.2 mm 7 mps 740 mmHg 78%
    19:00 +14°C° 0.2 mm 6 mps 740 mmHg 80%
    20:00 +14°C° 0.3 mm 6 mps 740 mmHg 80%
    21:00 +14°C° 0.3 mm 5 mps 740 mmHg 79%
    22:00 +14°C° 0.3 mm 5 mps 741 mmHg 79%
    23:00 +14°C° 0 mm 5 mps 741 mmHg 79%

    24 September, Tuesday

    Time Temperature Precipitation Wind Pressure Humidity
    00:00 +14°C° 0 mm 5 mps 741 mmHg 80%
    01:00 +14°C° 0 mm 5 mps 741 mmHg 80%
    02:00 +13°C° 0 mm 5 mps 741 mmHg 80%
    03:00 +13°C° 0 mm 5 mps 741 mmHg 80%
    04:00 +13°C° 0 mm 5 mps 741 mmHg 80%
    05:00 +13°C° 0 mm 6 mps 741 mmHg 79%
    06:00 +13°C° 0 mm 6 mps 741 mmHg 77%
    07:00 +13°C° 0 mm 6 mps 741 mmHg 76%
    08:00 +14°C° 0 mm 6 mps 741 mmHg 70%
    09:00 +16°C° 0 mm 7 mps 742 mmHg 63%
    10:00 +17°C° 0 mm 7 mps 742 mmHg 57%
    11:00 +18°C° 0.1 mm 7 mps 742 mmHg 54%
    12:00 +20°C° 0.1 mm 7 mps 741 mmHg 51%
    13:00 +21°C° 0.1 mm 7 mps 741 mmHg 48%
    14:00 +21°C° 0.1 mm 6 mps 741 mmHg 48%
    15:00 +21°C° 0.1 mm 5 mps 741 mmHg 47%
    16:00 +21°C° 0.1 mm 5 mps 741 mmHg 47%
    17:00 +19°C° 0 mm 4 mps 741 mmHg 53%
    18:00 +18°C° 0 mm 3 mps 741 mmHg 59%
    19:00 +16°C° 0 mm 3 mps 741 mmHg 65%
    20:00 +16°C° 0 mm 3 mps 741 mmHg 68%
    21:00 +14°C° 0 mm 3 mps 741 mmHg 71%
    22:00 +14°C° 0 mm 3 mps 742 mmHg 74%
    23:00 +15°C° 0 mm 2 mps 741 mmHg 75%
    Show more